Temp
-18 -18 -18 -18 -18 -18 -18 -18 -18 -18 -17 -17 -17 -17 -17 -16 -16 -15 -15 -15 -14 -14 -14 -13 -13 -13 -13 -13 -13 -13 -13 -13 -13 -12 -12 -12 -12 -13 -13 -13 -13 -13 -13
-18 -18 -18 -18 -18 -18 -18 -18 -18 -18 -18 -18 -18 -18 -18 -18 -17 -16 -16 -16 -15 -15 -15 -14 -14 -14 -14 -14 -14 -13 -13 -13 -13 -13 -13 -13 -13 -13 -13 -13 -13 -13 -13
-18 -18 -18 -18 -19 -19 -19 -18 -18 -18 -18 -19 -19 -19 -19 -18 -18 -18 -18 -17 -17 -16 -16 -15 -15 -14 -14 -14 -14 -14 -13 -13 -13 -13 -13 -13 -13 -13 -13 -13 -13 -13 -13
-18 -18 -19 -19 -19 -19 -19 -19 -19 -19 -18 -19 -19 -19 -19 -19 -19 -18 -18 -18 -18 -18 -17 -17 -16 -15 -15 -15 -14 -14 -14 -14 -14 -13 -13 -13 -13 -13 -13 -13 -13 -13 -14
-18 -19 -19 -19 -19 -19 -19 -19 -19 -19 -19 -19 -18 -19 -19 -19 -19 -18 -18 -18 -18 -18 -17 -17 -17 -17 -16 -16 -15 -15 -14 -14 -14 -14 -14 -14 -14 -13 -13 -13 -13 -13 -14
-19 -19 -19 -19 -19 -19 -19 -19 -19 -19 -19 -19 -19 -18 -18 -18 -18 -18 -18 -18 -17 -17 -17 -17 -17 -17 -17 -17 -16 -15 -15 -15 -14 -14 -14 -14 -14 -14 -13 -13 -14 -14 -13
-18 -18 -18 -19 -19 -20 -20 -20 -19 -19 -19 -20 -19 -20 -19 -19 -19 -19 -19 -18 -18 -17 -17 -17 -17 -17 -17 -17 -17 -16 -16 -15 -15 -15 -14 -15 -14 -14 -14 -14 -14 -13 -14
-19 -18 -18 -19 -19 -19 -19 -19 -19 -19 -19 -19 -20 -20 -20 -19 -19 -18 -18 -18 -18 -17 -17 -17 -17 -17 -17 -17 -18 -17 -17 -16 -16 -15 -15 -15 -15 -14 -14 -14 -14 -13 -14
-19 -19 -19 -19 -19 -19 -19 -19 -19 -19 -19 -19 -19 -19 -19 -19 -20 -19 -19 -19 -19 -19 -18 -18 -18 -18 -18 -18 -18 -18 -18 -17 -16 -16 -15 -15 -15 -15 -14 -14 -14 -14 -14
-19 -19 -19 -19 -19 -19 -19 -19 -19 -19 -20 -19 -19 -19 -19 -19 -19 -19 -19 -19 -19 -19 -19 -19 -19 -18 -18 -18 -18 -18 -18 -18 -17 -16 -16 -16 -16 -16 -15 -14 -14 -14 -14
-19 -19 -20 -20 -20 -20 -20 -20 -20 -20 -20 -19 -19 -19 -19 -19 -19 -19 -19 -19 -19 -19 -19 -19 -19 -19 -19 -19 -18 -18 -18 -18 -18 -17 -16 -16 -16 -15 -15 -15 -14 -14 -14
-20 -20 -20 -20 -21 -21 -21 -21 -21 -21 -20 -20 -20 -19 -19 -19 -19 -19 -19 -19 -19 -19 -19 -20 -20 -20 -20 -19 -19 -18 -18 -18 -18 -18 -17 -16 -16 -15 -15 -15 -15 -14 -14
-20 -21 -21 -21 -21 -22 -22 -22 -21 -21 -21 -21 -20 -20 -19 -19 -19 -19 -19 -19 -19 -19 -19 -20 -20 -21 -21 -20 -19 -19 -18 -18 -18 -18 -17 -17 -16 -16 -16 -15 -15 -15 -15
-20 -20 -21 -21 -22 -22 -22 -23 -23 -22 -22 -22 -21 -21 -20 -20 -20 -19 -19 -19 -19 -19 -19 -20 -20 -21 -21 -21 -20 -19 -19 -18 -18 -18 -18 -17 -16 -16 -16 -15 -15 -15 -15
-20 -21 -21 -22 -23 -23 -23 -23 -23 -23 -23 -23 -22 -22 -21 -21 -20 -20 -20 -19 -19 -18 -19 -20 -20 -21 -21 -20 -19 -19 -19 -19 -18 -18 -18 -17 -17 -17 -16 -16 -15 -15 -15
-22 -22 -23 -23 -24 -24 -24 -24 -24 -24 -24 -24 -23 -23 -22 -21 -20 -20 -20 -19 -19 -18 -18 -20 -20 -20 -20 -20 -19 -19 -19 -19 -18 -18 -18 -18 -17 -17 -16 -16 -15 -15 -15
-23 -23 -24 -25 -25 -25 -25 -25 -25 -25 -25 -24 -24 -24 -23 -22 -20 -20 -20 -19 -19 -18 -18 -19 -19 -20 -20 -20 -20 -19 -18 -18 -18 -18 -18 -18 -17 -17 -17 -16 -15 -15 -15
-25 -26 -26 -27 -27 -27 -27 -27 -27 -26 -25 -25 -25 -24 -24 -23 -22 -20 -20 -19 -19 -19 -18 -18 -19 -19 -19 -19 -19 -19 -19 -19 -18 -18 -18 -18 -18 -18 -17 -16 -16 -16 -15
-26 -27 -28 -28 -28 -28 -28 -28 -27 -26 -26 -26 -26 -25 -25 -24 -22 -21 -20 -19 -19 -19 -18 -18 -19 -19 -19 -19 -19 -19 -20 -20 -19 -18 -18 -18 -18 -18 -17 -17 -16 -16 -16
-27 -28 -29 -29 -29 -29 -29 -28 -28 -27 -27 -26 -26 -26 -26 -25 -23 -22 -20 -19 -19 -19 -19 -18 -19 -19 -19 -19 -19 -20 -21 -21 -20 -19 -19 -18 -18 -18 -17 -17 -16 -17 -16
-28 -29 -29 -30 -30 -29 -29 -29 -28 -28 -27 -27 -26 -26 -26 -25 -24 -22 -21 -20 -19 -19 -19 -19 -19 -19 -19 -19 -20 -20 -21 -21 -20 -19 -19 -19 -18 -18 -18 -17 -17 -17 -16
-29 -30 -30 -31 -30 -30 -30 -29 -28 -28 -28 -27 -27 -27 -26 -26 -24 -23 -22 -20 -20 -20 -19 -19 -19 -19 -19 -19 -19 -21 -21 -21 -20 -19 -19 -19 -18 -18 -18 -17 -17 -17 -16
-30 -31 -31 -31 -31 -30 -30 -29 -29 -28 -28 -27 -26 -27 -26 -26 -25 -23 -22 -21 -20 -20 -19 -19 -19 -19 -19 -19 -20 -21 -21 -20 -20 -19 -19 -19 -18 -18 -18 -17 -17 -17 -16
-30 -31 -31 -31 -31 -31 -31 -30 -29 -29 -27 -26 -27 -27 -26 -26 -25 -24 -23 -21 -20 -20 -19 -19 -19 -19 -19 -19 -19 -20 -20 -19 -19 -19 -19 -19 -19 -18 -18 -17 -17 -17 -16
-30 -30 -30 -30 -30 -30 -29 -29 -29 -28 -28 -28 -27 -27 -26 -26 -25 -24 -23 -22 -20 -20 -20 -19 -19 -19 -19 -19 -19 -20 -20 -19 -19 -19 -19 -19 -19 -18 -18 -17 -17 -17 -16
-29 -29 -28 -28 -28 -27 -27 -27 -27 -27 -27 -27 -27 -27 -26 -25 -25 -24 -23 -22 -21 -21 -20 -20 -20 -20 -20 -19 -19 -20 -20 -20 -19 -19 -19 -19 -18 -18 -18 -17 -17 -17 -17
Height
5740 5739 5738 5736 5735 5735 5735 5734 5734 5734 5735 5737 5739 5741 5743 5746 5749 5751 5754 5757 5760 5764 5767 5771 5776 5780 5784 5789 5793 5798 5803 5807 5811 5815 5819 5823 5826 5828 5831 5834 5836 5840 5842
5729 5727 5726 5725 5724 5723 5723 5723 5723 5723 5723 5724 5725 5728 5731 5733 5736 5739 5742 5746 5749 5753 5756 5760 5765 5770 5775 5780 5785 5790 5795 5800 5804 5808 5812 5817 5820 5823 5827 5830 5833 5836 5839
5718 5716 5715 5714 5712 5711 5712 5712 5712 5712 5713 5713 5713 5716 5719 5722 5725 5728 5731 5735 5738 5741 5745 5750 5754 5760 5765 5770 5775 5780 5786 5792 5797 5801 5806 5810 5815 5819 5822 5825 5829 5832 5835
5707 5705 5703 5702 5700 5699 5699 5700 5700 5701 5702 5703 5703 5705 5708 5711 5715 5718 5722 5725 5729 5733 5736 5740 5744 5749 5755 5760 5765 5771 5777 5783 5789 5794 5799 5804 5809 5814 5817 5819 5824 5827 5831
5694 5693 5691 5690 5688 5687 5687 5687 5687 5688 5689 5691 5692 5695 5698 5700 5704 5708 5712 5715 5719 5724 5727 5731 5736 5739 5744 5750 5756 5762 5768 5775 5781 5787 5792 5798 5803 5808 5812 5815 5819 5823 5826
5681 5678 5676 5676 5674 5674 5673 5673 5673 5674 5675 5677 5679 5682 5686 5689 5693 5696 5700 5704 5708 5712 5718 5722 5726 5731 5735 5740 5746 5753 5759 5766 5772 5779 5785 5791 5796 5801 5805 5810 5813 5817 5821
5668 5665 5663 5662 5660 5659 5658 5658 5658 5660 5660 5663 5665 5669 5673 5676 5681 5684 5687 5691 5695 5700 5706 5711 5715 5721 5726 5731 5736 5743 5749 5756 5763 5770 5777 5783 5789 5794 5799 5804 5808 5811 5815
5654 5650 5648 5646 5644 5643 5643 5643 5644 5646 5646 5649 5651 5654 5660 5665 5669 5671 5675 5679 5682 5687 5691 5697 5703 5709 5715 5721 5727 5733 5739 5746 5753 5761 5769 5775 5782 5788 5793 5798 5802 5803 5806
5640 5637 5633 5630 5628 5626 5626 5626 5626 5628 5630 5633 5636 5639 5645 5652 5655 5657 5662 5666 5671 5676 5681 5685 5691 5697 5703 5710 5717 5724 5729 5736 5743 5752 5760 5768 5774 5781 5787 5793 5796 5801 5802
5625 5620 5617 5614 5612 5611 5610 5610 5610 5611 5613 5615 5619 5623 5629 5636 5641 5645 5649 5655 5659 5664 5669 5674 5680 5686 5691 5698 5706 5713 5720 5726 5734 5742 5751 5759 5766 5774 5780 5786 5792 5795 5801
5611 5605 5600 5596 5594 5592 5593 5593 5594 5595 5597 5600 5602 5606 5610 5619 5627 5632 5636 5642 5647 5652 5658 5663 5669 5674 5679 5685 5694 5702 5710 5717 5725 5733 5742 5751 5758 5765 5773 5781 5786 5791 5791
5592 5587 5581 5577 5573 5571 5571 5573 5574 5577 5581 5584 5587 5591 5595 5601 5611 5617 5621 5628 5634 5641 5647 5652 5658 5662 5666 5672 5682 5691 5700 5708 5717 5725 5733 5742 5750 5759 5767 5775 5780 5785 5785
5572 5566 5561 5557 5554 5552 5551 5551 5553 5557 5561 5566 5571 5577 5581 5587 5593 5601 5606 5615 5622 5627 5636 5641 5646 5650 5653 5659 5670 5681 5690 5699 5708 5717 5726 5733 5743 5752 5761 5768 5774 5778 5779
5554 5548 5542 5537 5534 5533 5532 5532 5533 5536 5539 5544 5551 5559 5567 5573 5580 5586 5593 5603 5610 5617 5625 5630 5635 5639 5643 5650 5661 5672 5681 5690 5700 5709 5718 5726 5736 5746 5753 5762 5768 5775 5779
5534 5527 5520 5515 5511 5510 5510 5512 5515 5517 5521 5526 5531 5539 5549 5558 5566 5573 5580 5589 5600 5608 5616 5621 5626 5631 5637 5644 5654 5664 5673 5682 5691 5701 5710 5719 5729 5739 5745 5754 5762 5770 5777
5509 5499 5492 5487 5484 5484 5486 5488 5492 5496 5501 5507 5513 5520 5530 5540 5551 5560 5568 5577 5588 5599 5606 5614 5620 5625 5632 5639 5648 5657 5665 5674 5683 5692 5702 5712 5722 5730 5738 5746 5755 5764 5770
5480 5469 5460 5456 5455 5456 5459 5462 5467 5473 5480 5487 5494 5503 5511 5522 5534 5546 5556 5565 5577 5589 5598 5607 5614 5620 5627 5635 5643 5650 5657 5666 5676 5685 5695 5705 5715 5724 5731 5740 5749 5758 5765
5452 5442 5434 5429 5428 5429 5433 5438 5443 5449 5457 5466 5475 5485 5495 5506 5519 5532 5543 5554 5566 5578 5589 5599 5607 5614 5622 5629 5636 5643 5650 5658 5668 5678 5688 5699 5708 5717 5724 5734 5743 5752 5761
5431 5418 5410 5407 5406 5408 5412 5417 5423 5429 5438 5447 5457 5470 5481 5492 5506 5519 5532 5544 5555 5567 5580 5591 5601 5609 5617 5624 5630 5636 5641 5648 5659 5671 5682 5692 5701 5710 5718 5729 5738 5746 5754
5412 5399 5393 5390 5390 5392 5396 5401 5406 5413 5422 5432 5443 5456 5469 5482 5495 5508 5520 5534 5546 5557 5571 5583 5594 5603 5612 5618 5623 5628 5632 5639 5652 5664 5675 5685 5694 5704 5714 5724 5732 5742 5750
5399 5388 5382 5379 5380 5382 5384 5388 5394 5401 5409 5419 5431 5445 5460 5473 5485 5498 5511 5525 5537 5549 5562 5575 5586 5597 5606 5613 5617 5621 5626 5634 5646 5658 5669 5679 5689 5699 5709 5719 5727 5737 5746
5393 5383 5377 5374 5373 5374 5376 5379 5384 5391 5399 5409 5422 5437 5452 5466 5478 5491 5504 5517 5529 5542 5555 5570 5581 5592 5601 5608 5612 5616 5623 5632 5643 5654 5665 5675 5685 5694 5704 5715 5723 5732 5741
5393 5384 5376 5371 5368 5368 5368 5371 5376 5384 5392 5403 5416 5431 5447 5461 5473 5485 5498 5511 5522 5535 5548 5563 5575 5587 5596 5604 5609 5613 5622 5630 5641 5652 5662 5672 5681 5691 5700 5710 5720 5729 5737
5394 5384 5375 5369 5365 5364 5364 5367 5372 5379 5387 5400 5414 5429 5444 5458 5470 5482 5494 5506 5518 5530 5543 5556 5570 5581 5591 5600 5606 5611 5619 5629 5640 5650 5660 5669 5678 5687 5696 5706 5716 5725 5732
5397 5389 5381 5375 5372 5371 5372 5374 5377 5383 5391 5403 5417 5430 5444 5456 5467 5479 5491 5502 5514 5528 5540 5555 5569 5580 5589 5597 5604 5610 5618 5627 5637 5647 5656 5666 5675 5684 5693 5702 5711 5720 5728
5405 5399 5392 5388 5386 5385 5385 5386 5389 5394 5401 5411 5422 5434 5444 5456 5468 5479 5490 5501 5515 5528 5541 5555 5568 5579 5587 5595 5601 5607 5615 5625 5634 5644 5654 5663 5672 5681 5690 5699 5707 5716 5724
Wind_Speed
40 41 43 46 48 48 49 50 50 50 53 52 51 48 46 47 48 47 48 50 50 50 49 48 45 43 42 41 41 40 37 35 33 30 30 30 31 29 28 25 25 25 21
40 40 41 42 42 42 42 43 45 46 47 46 48 46 43 45 44 43 44 47 50 52 51 52 50 47 44 44 43 43 40 38 36 34 31 29 28 31 32 28 24 22 23
41 42 41 41 42 42 42 42 42 39 39 39 39 43 40 41 40 38 39 39 38 42 48 52 51 50 48 46 46 44 43 41 38 36 34 31 32 33 33 30 27 25 21
45 46 47 47 47 47 47 47 47 46 44 42 41 39 39 41 40 39 37 36 35 34 35 37 43 50 50 49 48 47 46 43 41 39 37 33 33 32 33 27 28 25 24
52 53 53 53 54 54 53 52 52 53 52 49 48 44 40 40 42 40 40 39 38 37 36 34 34 36 43 48 49 49 48 46 43 42 39 36 34 31 32 35 30 27 25
49 50 50 54 56 56 58 58 57 55 56 52 49 48 49 46 45 45 45 45 44 43 43 42 40 38 37 41 48 50 50 49 47 44 42 39 36 32 32 30 30 29 28
51 52 52 52 52 53 54 55 54 52 52 52 52 50 49 47 47 47 47 47 48 49 49 49 48 45 43 39 43 48 50 51 49 47 44 41 38 36 33 29 27 29 31
47 47 47 49 52 54 56 56 55 54 56 54 55 55 59 56 51 51 50 50 49 49 50 50 50 51 48 45 40 43 48 50 50 48 46 43 40 39 35 31 30 24 33
45 47 47 49 49 48 50 53 56 58 58 58 58 56 53 51 52 53 47 44 42 40 40 41 41 41 47 50 47 41 43 48 50 49 48 45 43 40 38 35 33 32 29
48 49 49 49 49 50 50 49 52 53 53 58 59 61 58 54 51 50 48 46 46 44 43 42 42 40 43 49 51 48 42 46 49 50 49 48 46 42 40 36 33 31 31
53 54 55 56 56 55 52 50 51 52 52 53 52 55 59 58 56 56 56 51 49 47 46 44 42 42 44 48 54 52 48 45 47 49 50 49 48 46 43 40 39 33 37
56 57 58 58 59 59 59 57 55 53 54 52 50 52 50 52 53 57 59 54 53 51 49 48 45 45 47 52 56 53 52 48 45 46 50 50 50 48 44 42 39 35 36
52 51 52 51 49 48 49 51 53 57 62 60 56 51 50 47 46 53 59 54 52 52 49 47 44 44 43 50 53 51 52 52 48 46 48 51 51 49 46 44 42 39 28
54 57 58 57 55 53 53 53 52 53 52 55 60 59 54 51 45 46 57 55 53 49 44 42 42 38 37 45 48 48 49 50 50 48 47 50 51 49 48 44 43 38 35
61 62 62 61 58 60 59 58 54 51 49 51 52 58 58 56 51 44 50 54 52 47 41 41 38 35 35 41 43 46 47 47 48 49 47 49 50 50 49 47 45 42 37
69 70 69 68 67 63 60 61 61 59 56 51 51 52 56 59 55 51 45 49 52 48 41 39 33 36 37 34 37 43 46 47 46 48 49 48 48 51 50 48 46 44 39
71 69 65 63 63 62 60 60 63 63 56 53 53 52 53 57 59 52 49 45 53 51 44 40 35 35 33 32 34 38 45 49 48 47 50 47 48 51 51 48 45 42 38
62 60 56 52 48 46 47 45 49 51 50 51 53 52 53 54 57 55 51 46 52 56 51 45 40 36 32 31 30 33 37 51 51 48 49 46 48 49 51 48 44 41 38
57 56 48 43 41 41 41 43 44 45 47 48 50 51 50 50 51 53 53 51 50 59 57 50 44 40 36 34 32 33 37 47 56 50 49 47 48 48 51 46 44 41 39
50 40 34 33 31 30 34 34 36 39 42 46 47 50 49 47 47 52 55 52 50 58 59 55 49 44 37 34 31 32 37 47 54 51 48 47 49 48 49 45 43 41 39
40 30 26 21 20 22 25 28 31 34 39 44 45 51 49 47 47 49 53 52 52 55 61 58 53 45 37 32 29 29 38 47 50 49 47 46 46 48 49 44 43 41 38
33 27 18 14 14 17 20 23 27 30 36 41 43 51 50 46 45 47 48 51 54 51 58 57 54 45 38 32 27 30 39 45 46 46 47 46 45 47 47 44 43 41 40
32 29 23 17 14 13 15 18 22 27 33 39 42 50 50 45 44 44 44 48 53 52 57 57 53 45 39 32 26 32 40 42 43 43 45 45 44 46 45 43 43 42 42
31 31 26 18 10 4 2 9 16 22 29 36 43 45 47 44 44 42 42 47 52 53 56 57 53 47 41 34 28 31 39 41 42 41 43 44 44 45 44 42 42 42 42
32 31 28 23 20 17 15 15 17 23 29 37 40 39 41 42 43 43 41 47 53 53 55 55 50 45 40 35 31 29 39 41 42 41 42 44 43 44 43 42 42 43 42
38 35 32 29 27 25 22 21 21 23 27 33 36 37 39 41 42 42 42 45 52 50 53 52 48 44 40 35 32 30 39 43 42 41 41 43 43 44 44 42 41 42 40
Wind_Direction
272 273 274 273 273 273 273 273 273 273 273 273 271 267 265 262 258 254 250 247 244 241 242 244 241 240 238 235 236 235 232 230 229 228 226 225 230 230 234 235 233 231 229
276 275 273 271 272 272 271 271 272 271 272 273 269 264 259 259 256 253 250 246 243 241 240 240 240 237 236 235 234 234 231 230 227 227 225 223 225 229 231 233 232 230 228
279 276 274 271 272 270 270 270 270 268 271 273 265 260 257 253 249 247 246 243 241 240 241 239 239 237 234 233 233 233 231 229 228 226 226 222 225 227 231 234 233 236 230
279 278 276 273 271 270 271 270 270 269 268 267 263 262 252 250 245 242 242 242 239 236 238 238 240 239 236 232 231 231 230 228 227 226 225 222 223 224 230 242 233 230 232
278 275 271 269 268 269 269 268 267 266 265 264 262 255 250 249 243 241 242 241 240 238 240 241 242 242 240 235 230 229 229 228 225 225 223 220 222 221 223 228 234 231 230
277 277 276 270 266 266 266 266 267 264 262 260 257 256 250 247 245 246 247 245 243 243 240 240 244 244 243 239 233 227 226 226 223 223 222 220 219 218 223 228 231 232 230
279 277 274 271 269 264 263 263 263 262 262 257 254 252 248 244 244 243 244 246 248 248 248 245 245 246 242 238 235 229 225 225 223 220 220 218 215 216 220 223 225 231 225
284 283 280 275 271 268 266 263 261 259 259 258 256 252 250 250 249 247 246 246 249 250 246 241 241 242 237 232 231 230 226 223 222 219 218 216 216 215 214 220 223 233 217
287 286 283 280 277 272 268 266 264 262 259 256 254 252 248 249 248 247 239 237 237 237 236 237 240 239 234 229 225 227 224 222 221 219 216 214 215 215 214 216 222 223 228
288 285 284 281 276 272 270 268 263 261 259 258 255 253 248 242 240 242 240 235 239 238 238 237 238 238 237 230 225 221 224 220 220 217 215 212 213 214 211 211 216 223 210
291 288 285 283 279 275 269 264 262 261 258 255 254 251 250 244 237 239 243 241 236 236 237 237 237 237 237 233 224 221 219 219 217 217 214 211 211 211 212 211 213 217 216
295 290 285 280 277 274 270 266 259 254 254 252 251 250 249 247 239 235 238 238 238 236 239 240 240 239 237 229 220 220 217 216 215 216 213 211 210 213 210 212 215 218 222
293 291 287 285 278 272 270 270 266 260 255 251 250 246 244 243 240 234 234 233 237 238 238 240 238 238 234 221 215 218 218 215 216 214 214 211 209 211 212 211 215 209 218
293 291 287 283 275 268 268 270 265 263 260 256 251 247 242 240 237 234 235 231 231 235 235 231 233 232 226 215 211 215 216 217 217 214 212 212 209 208 211 211 216 214 210
291 287 284 279 274 266 263 263 263 260 258 255 253 246 240 239 235 231 232 230 227 228 228 224 224 219 216 211 209 213 215 214 215 215 211 211 209 207 210 210 213 216 215
291 287 281 276 271 267 263 260 260 260 258 256 249 244 238 230 231 225 229 228 221 219 220 218 209 208 208 204 207 212 215 215 213 214 211 209 208 208 210 210 211 213 216
294 290 286 281 276 270 264 259 258 258 256 247 240 240 234 231 223 222 221 223 215 213 211 213 204 202 202 203 206 213 216 216 213 212 210 209 206 208 210 209 212 212 212
303 300 293 282 272 264 260 255 254 254 245 238 234 231 229 226 223 217 216 217 212 210 206 209 204 203 204 208 213 218 222 216 213 210 208 207 204 207 210 208 210 211 209
309 303 292 280 272 262 247 246 248 243 234 231 226 223 222 219 217 212 210 212 209 207 206 204 206 205 207 209 215 222 226 216 210 207 206 205 204 205 209 207 208 207 207
319 309 298 282 271 260 252 248 241 232 227 225 220 214 213 210 208 205 205 207 207 205 206 202 205 207 208 212 217 226 220 207 202 203 204 204 204 203 207 206 207 205 206
329 316 309 290 272 256 248 240 232 229 223 219 214 206 206 203 200 201 202 202 204 204 204 201 204 206 207 212 218 221 205 198 196 200 200 200 202 201 204 204 205 203 203
353 351 337 308 280 259 247 238 231 221 217 212 207 200 200 199 195 196 199 198 201 202 201 202 202 201 205 208 215 204 196 192 195 198 197 198 200 200 201 202 202 200 201
0 360 352 334 306 279 256 237 222 213 207 203 200 194 195 196 193 192 194 195 199 200 197 198 200 196 199 200 204 194 194 191 194 196 196 196 198 199 200 199 200 198 199
6 8 6 5 356 341 169 175 187 194 193 190 186 187 191 192 189 187 191 193 196 197 194 195 195 192 192 193 195 192 193 192 193 195 194 194 196 197 197 197 196 199 200
16 23 30 43 64 78 95 117 137 148 158 167 174 179 183 185 186 185 188 190 193 193 190 192 190 189 188 191 193 194 194 193 192 194 194 193 195 196 195 193 197 198 202
41 43 51 58 69 77 86 99 113 131 149 161 167 169 175 179 181 183 185 188 187 186 184 184 187 187 187 191 196 197 195 190 191 191 192 192 193 194 193 192 195 198 202